Погода Великий Устюг

Хотите узнать прогноз погоды Великий Устюг? Тогда Вам сюда: Погода Великий Устюг

Поиск расширенной информации на нашем сайте:

Полезная информация:

Новости сайта



02.01.2020
Опубликован Долгосрочный прогноз погоды по городам России и ближнего зарубежья на январь 2020 года.
Карты: Прогноз на январь и февраль 2020 года, Сравнение прогнозируемой аномалии приземной температуры воздуха на январь 2020 года по разным моделям.




Погода Великий Устюг - сегодня

Время (UTC), дата Ветер
(°,м/с) 
Видим.   Явления Облачность Т
(°С)
Тd
(°С)
f(%) Тe
(°С)
Pmin
(гПа)
dP
(гПа)
Po
(мм)
O2
(г/м3)
Тmin Tmax R s Состояние
почвы
03 29.11.20 320 (СЗ) 10 км    3/0 верхняя 
[Ci fib]
-13.8 -15.1 90 -14  1042.4  0.3  772  329  -13.8      равномерный
сухой снег
100% 
06 29.11.20 нст () 10 км    3/0 верхняя 
[Ci fib]
-13.4 -14.7 90 -13  1043  0.7  772  329           
09 29.11.20 нст () 10 км    10/10 800 м 
[Sc]
-10.9 -12.2 90 -11  1043.3  0.3  772  325           
12 29.11.20 нст () 10 км    10/10 960 м 
[Sc]
-9.5 -11.1 88 -9  1043.1  -0.1  772  324           
15 29.11.20 130 (ЮВ) 10 км    10/10 630 м 
[Sc]
-8.4 -9.9 89 -10  1043.1  0.1  772  322    -8.4       
18 29.11.20 140 (ЮВ) 10 км    10/10 400 м 
[St]
-7.1 -8.4 90 -10  1042.8  -0.2  772  320           
21 29.11.20 130 (ЮВ) 10 км    10/10 330 м 
[St]
-6.4 -7.6 91 -9  1042.5  -0.3  772  319           
00 30.11.20 130 (ЮВ) 10 км    10/10 270 м 
[St]
-5.2 -6.2 93 -7  1042  -0.5  772  318           
03 30.11.20 150 (ЮВ) 10 км    10/10 300 м 
[St]
-4.5 -5.4 93 -6  1041.1  -0.8  771  317  -8.4      равномерный
сухой снег
100% 
06 30.11.20 140 (ЮВ) 10 км    10/10 210 м 
[St]
-4.5 -5.1 96 -7  1040.7  -0.4  771  316           
09 30.11.20 140 (ЮВ) 10 км    10/10 180 м 
[St]
-2.7 -3.7 93 -5  1039.8  -0.8  770  314           
12 30.11.20 130 (ЮВ) 10 км    10/10 240 м 
[St]
-1.9 -3 92 -4  1039  -0.8  770  313           
15 30.11.20 160 (Ю) 10 км    10/0 средняя, верхняя 
[Ac trans|Ci fib]
-2.4 -4 89 -4  1037.3  -1.6  768  313    -1.9       
18 30.11.20 170 (Ю) 10 км    8/0 верхняя 
[Ci fib]
-3.9 -5.8 87 -7  1035.8  -1.6  767  314           
21 30.11.20 170 (Ю) 10 км    10/10 360 м 
[St]
-3.5 -5.6 85 -7  1035.7  -0.1  767  314           
00 01.12.20 170 (Ю) 10 км    10/10 300 м 
[St]
-3.3 -5.4 85 -6  1034.9  -0.7  767  313           
03 01.12.20 160 (Ю) 10 км    6/0 верхняя 
[Ci fib]
-5.2 -7.7 83 -9  1034.5  -0.5  766  316  -5.2      равномерный
сухой снег
100% 
06 01.12.20 170 (Ю) 10 км    8/0 верхняя 
[Ci fib]
-6.6 -9.4 80 -10  1034.7  766  317  -6.6         
09 01.12.20 160 (Ю) 10 км    10/0 средняя, верхняя 
[Ac trans|Ci fib]
-5.6 -9.8 72 -8  1034.4  -0.1  766  316           
12 01.12.20 170 (Ю) 10 км    10/0 средняя, верхняя 
[Ac trans|Ci fib]
-5.2 -9.7 71 -8  1033.7  -0.7  766  315           
15 01.12.20 170 (Ю) 10 км    10/0 средняя, верхняя 
[Ac trans|Ci fib]
-4.9 -9.8 68 -9  1034  0.3  766  315    -4.9       
18 01.12.20 180 (Ю) 10 км    10/6 630 м средняя 
[Sc|Ac und]
-4.4 -9.1 70 -8  1034.2  0.2  766  315           
21 01.12.20 180 (Ю) 10 км    10/4 600 м средняя 
[Sc|Ac und]
-4.7 -8.7 74 -8  1034.5  0.3  766  315           
00 02.12.20 170 (Ю) 10 км  {ливн. осадки}  10/4 300 м кучево-дожд., средняя 
[Cb calv|Ac und]
-5.9 -8.1 84 -9  1034.7  0.1  766  316           
03 02.12.20 180 (Ю) 10 км    10/10 420 м 
[St]
-5.4 -7.9 83 -9  1034.5  -0.1  766  316  -5.9    0.3  равномерный
сухой снег
100% 
Время (UTC), дата Ветер
(°,м/с) 
Видим.   Явления Облачность Т
(°С)
Тd
(°С)
f(%) Тe
(°С)
Pmin
(гПа)
dP
(гПа)
Po
(мм)
O2
(г/м3)
Тmin Tmax R s Состояние
почвы

Для получения пояснительной информации подведите курсор к названию столбца.

ПОГОДА Великий Устюг - архив

Всё, что Вы хотите узнать о погоде Великий Устюг - удобно и подробно!

Выберите нужную дату (начиная с 1 января 2019* года) и нажмите кнопку "Найти".
Будут отображены архивные сводки погоды по пункту Великий Устюг, начиная с указанной даты.


Отображать данные в формате CSV (для использования в таблицах Excel)


Внимание! Наш архив погоды предназначен исключительно для личного некоммерческого использования в познавательных целях. Если Вам необходимы официальные справки о состоянии погоды (для производственных, юридических, коммерческих и т.п. целей), обращайтесь в органы Росгидромета.

*Примечание: данная дата относится к архиву по метеостанциям СССР (Россия, СНГ, Балтия).
Архив по метеостанциям Зарубежной Европы и Азии (кроме Китая) хранится 10 дней, по другим регионам земного шара (Китай, Африка, Америка, Австралия, Океания) - 1 день.

Великий Устюг - район местоположения метеостанции


Название, широта, долгота, высота метеостанции:
Великий Устюг 60.8°ш. 46.3°д. 99 м над ур. моря [Российская Федерация]

Дополнительная информация

В oтличие oт бoльшинства пoгoдных сайтoв мы публикуем пoдрoбную метеoинфoрмацию в детальнoм прoфессиoнальнoм фoрмате.

Характеристики температуры и влажнoсти вoздуха измеряются на высoте 2 м в тени вдали oт зданий и деревьев.
Скoрoсть ветра измеряется на высoте 10 м (на урoвне рoста челoвека скoрoсть ветра ниже в 1.5-2 раза). Если метеoстанция нахoдится в гoрoде или в лесу, тo скoрoсть ветра занижена на 2-4 м/с пo сравнению с oткрытым местoм. Скoрoсть ветра над акватoриями крупных рек и oзёр, а также на вершинах хoлмoв на 2-5 м/с выше, чем в oбычных услoвиях.
Атмoсфернoе давление в разных тoчках местнoсти мoжет значительнo oтличаться oт давления на метеoстанции, в зависимoсти oт услoвий рельефа (при пoдъёме на 10 м давление пoнижается примернo на 1 мм рт.ст.).